Weather reports worldwide

Advertisment
Bergamo/Orio al Serio, Italy (16076): temperature & dewpoint: 17.04.2018 01:00:00 - 23.04.2018 01:00:00 (CEST)Bergamo/Orio al Serio, Italy (16076): wind speed: 17.04.2018 01:00:00 - 23.04.2018 01:00:00 (CEST)Bergamo/Orio al Serio, Italy (16076): wind direction: 17.04.2018 01:00:00 - 23.04.2018 01:00:00 (CEST)Bergamo/Orio al Serio, Italy (16076): reduced air pressure: 17.04.2018 01:00:00 - 23.04.2018 01:00:00 (CEST)Bergamo/Orio al Serio, Italy (16076): visibility: 17.04.2018 01:00:00 - 23.04.2018 01:00:00 (CEST)
Date & Time tt [°C] td [°C] ff [km/h] ff [kn] dd ppp [hPa] vv [km]
23.04.2018 01:00:00 16,0 11,0 9 5 N - 10
23.04.2018 00:00:00 17,0 11,0 9 5 N - 10
22.04.2018 23:00:00 17,5 11,4 9 5 N 1017,6 10
22.04.2018 22:00:00 19,0 11,0 8 4 NNE - 10
22.04.2018 21:00:00 21,0 11,0 4 2 - - 10
22.04.2018 20:00:00 22,8 10,4 8 4 SSE 1015,7 15
22.04.2018 19:00:00 24,0 10,0 8 4 S - 10
22.04.2018 18:00:00 25,0 10,0 9 5 S - 10
22.04.2018 17:00:00 24,9 10,4 9 5 S 1015,5 20
22.04.2018 16:00:00 25,0 10,0 9 5 S - 10
22.04.2018 15:00:00 24,0 9,0 8 4 S - 10
22.04.2018 14:00:00 24,0 10,4 5 3 SW 1017,2 10
22.04.2018 13:00:00 23,0 9,0 11 6 S - 10
22.04.2018 12:00:00 22,0 8,0 9 5 S - 10
22.04.2018 11:00:00 21,8 10,2 9 5 SSW 1018,5 10
22.04.2018 10:00:00 21,0 9,0 5 3 E - 10
22.04.2018 09:00:00 19,0 12,0 9 5 N - 10
22.04.2018 08:00:00 16,3 11,0 9 5 NNE 1018,8 11
22.04.2018 07:00:00 14,0 10,0 11 6 N - 10
22.04.2018 06:00:00 14,0 10,0 11 6 N - 10
22.04.2018 05:00:00 14,2 10,3 11 6 N 1018,8 11
22.04.2018 04:00:00 15,0 10,0 9 5 N - 10
22.04.2018 03:00:00 15,0 11,0 8 4 N - 10
22.04.2018 02:00:00 15,8 10,3 4 2 - 1019,1 10
22.04.2018 01:00:00 17,0 11,0 11 6 NNE - 10
22.04.2018 00:00:00 17,0 11,0 8 4 NNE - 10
21.04.2018 23:00:00 18,1 11,1 9 5 N 1018,7 10
21.04.2018 22:00:00 19,0 11,0 8 4 NNE - 10
21.04.2018 21:00:00 22,0 10,0 5 3 E - 10
21.04.2018 20:00:00 23,5 9,8 5 3 SSE 1017,2 11
21.04.2018 19:00:00 24,0 10,0 8 4 SSE - 10
21.04.2018 18:00:00 25,0 9,0 5 3 S - 10
21.04.2018 17:00:00 25,7 9,7 9 5 S 1017,4 15
21.04.2018 16:00:00 26,0 9,0 9 5 SW - 10
21.04.2018 15:00:00 26,0 10,0 9 5 S - 10
21.04.2018 14:00:00 25,4 11,3 9 5 S 1019,2 10
21.04.2018 13:00:00 25,0 8,0 8 4 - - 10
21.04.2018 12:00:00 24,0 10,0 11 6 SW - 10
21.04.2018 11:00:00 23,5 10,2 8 4 SSE 1021,0 10
21.04.2018 10:00:00 23,0 8,0 2 1 - - 10
21.04.2018 09:00:00 20,0 10,0 5 3 NNE - 10
21.04.2018 08:00:00 18,2 9,1 8 4 NE 1021,2 15
21.04.2018 07:00:00 15,0 8,0 11 6 NNE - 10
21.04.2018 06:00:00 - - - - - - -
21.04.2018 05:00:00 14,9 7,8 9 5 N 1021,2 15
21.04.2018 04:00:00 16,0 9,0 13 7 N - 10
21.04.2018 03:00:00 17,0 9,0 13 7 N - 10
21.04.2018 02:00:00 17,4 9,1 13 7 N 1021,7 10
21.04.2018 01:00:00 18,0 10,0 5 3 N - 10
21.04.2018 00:00:00 18,0 10,0 11 6 N - 10
20.04.2018 23:00:00 18,6 10,5 15 8 N 1022,0 10
20.04.2018 22:00:00 19,0 11,0 9 5 N - 10
20.04.2018 21:00:00 22,0 10,0 5 3 ENE - 10
20.04.2018 20:00:00 22,7 9,5 5 3 S 1021,2 15
20.04.2018 19:00:00 24,0 10,0 11 6 S - 10
20.04.2018 18:00:00 25,0 9,0 11 6 S - 10
20.04.2018 17:00:00 26,0 9,4 13 7 SSW 1021,4 12
20.04.2018 16:00:00 26,0 9,0 9 5 SSW - 10
20.04.2018 15:00:00 26,0 8,0 9 5 SW - 10
20.04.2018 14:00:00 25,3 7,5 11 6 SSW 1024,0 10
20.04.2018 13:00:00 24,0 9,0 9 5 S - 10
20.04.2018 12:00:00 24,0 9,0 9 5 SW - 10
20.04.2018 11:00:00 23,4 10,8 2 1 - 1025,4 10
20.04.2018 10:00:00 22,0 11,0 2 1 - - 10
20.04.2018 09:00:00 19,0 11,0 4 2 - - 10
20.04.2018 08:00:00 17,6 10,5 4 2 NNE 1025,5 12
20.04.2018 07:00:00 14,0 9,0 11 6 NNE - 10
20.04.2018 06:00:00 14,0 9,0 8 4 ENE - 10
20.04.2018 05:00:00 14,7 8,8 9 5 NE 1025,2 10
20.04.2018 04:00:00 15,0 9,0 11 6 NE - 10
20.04.2018 03:00:00 17,0 9,0 16 9 NNE - 10
20.04.2018 02:00:00 16,3 9,4 15 8 N 1025,9 10
20.04.2018 01:00:00 16,0 10,0 11 6 NNE - 10
20.04.2018 00:00:00 16,0 10,0 13 7 N - 10
19.04.2018 23:00:00 16,9 10,4 15 8 N 1027,0 10
19.04.2018 22:00:00 18,0 11,0 8 4 N - 10
19.04.2018 21:00:00 20,0 9,0 0 0 N - 10
19.04.2018 20:00:00 21,9 8,4 5 3 SSW 1026,0 12
19.04.2018 19:00:00 22,0 9,0 8 4 SSW - 10
19.04.2018 18:00:00 23,0 10,0 8 4 S - 10
19.04.2018 17:00:00 23,3 8,8 8 4 S 1026,1 10
19.04.2018 16:00:00 24,0 8,0 4 2 - - 10
19.04.2018 15:00:00 23,0 9,0 5 3 - - 10
19.04.2018 14:00:00 23,0 8,4 8 4 S 1027,8 10
19.04.2018 13:00:00 22,0 9,0 8 4 - - 10
19.04.2018 12:00:00 21,0 8,0 13 7 S - 10
19.04.2018 11:00:00 21,1 7,5 13 7 ESE 1029,3 10
19.04.2018 10:00:00 20,0 9,0 4 2 - - 10
19.04.2018 09:00:00 18,0 11,0 8 4 N - 10
19.04.2018 08:00:00 15,8 10,0 5 3 NE 1029,5 20
19.04.2018 07:00:00 13,0 9,0 11 6 NNE - 10
19.04.2018 06:00:00 13,0 9,0 11 6 NE - 10
19.04.2018 05:00:00 12,9 9,2 11 6 NNE 1029,6 40
19.04.2018 04:00:00 13,0 9,0 8 4 NE - 10
19.04.2018 03:00:00 15,0 10,0 4 2 - - 10
19.04.2018 02:00:00 14,5 9,8 9 5 N 1029,3 10
19.04.2018 01:00:00 15,0 10,0 13 7 N - 10
19.04.2018 00:00:00 16,0 10,0 11 6 N - 10
18.04.2018 23:00:00 15,9 10,8 13 7 N 1029,3 10
18.04.2018 22:00:00 17,0 11,0 5 3 NNE - 10
18.04.2018 21:00:00 20,0 10,0 4 2 S - 10
18.04.2018 20:00:00 20,8 10,2 8 4 S 1027,6 10
18.04.2018 19:00:00 22,0 10,0 9 5 S - 10
18.04.2018 18:00:00 23,0 9,0 13 7 S - 10
18.04.2018 17:00:00 23,6 8,4 13 7 S 1027,0 10
18.04.2018 16:00:00 24,0 11,0 9 5 S - 10
18.04.2018 15:00:00 23,0 10,0 11 6 S - 10
18.04.2018 14:00:00 23,0 11,4 8 4 SW 1028,0 10
18.04.2018 13:00:00 22,0 11,0 9 5 S - 10
18.04.2018 12:00:00 22,0 12,0 9 5 S - 10
18.04.2018 11:00:00 20,9 11,2 8 4 SSE 1028,7 10
18.04.2018 10:00:00 20,0 11,0 4 2 - - 10
18.04.2018 09:00:00 18,0 11,0 4 2 - - 10
18.04.2018 08:00:00 15,7 10,5 4 2 - 1028,3 10
18.04.2018 07:00:00 13,0 9,0 9 5 NNE - 10
18.04.2018 06:00:00 15,0 9,0 13 7 NNE - 10
18.04.2018 05:00:00 14,4 9,9 15 8 NNE 1027,2 10
18.04.2018 04:00:00 - - - - - - -
18.04.2018 03:00:00 15,0 11,0 15 8 NNE - 10
18.04.2018 02:00:00 14,7 11,1 11 6 N 1027,1 10
18.04.2018 01:00:00 15,0 12,0 11 6 N - 10
18.04.2018 00:00:00 16,0 12,0 8 4 NNE - 10
17.04.2018 23:00:00 17,0 12,4 11 6 ENE 1025,7 10
17.04.2018 22:00:00 - - - - - - -
17.04.2018 21:00:00 18,0 12,0 5 3 SE - 10
17.04.2018 20:00:00 19,9 12,2 9 5 S 1022,7 10
17.04.2018 19:00:00 21,0 12,0 13 7 S - 10
17.04.2018 18:00:00 22,0 12,0 8 4 S - 10
17.04.2018 17:00:00 22,6 10,2 8 4 SW 1021,2 10
17.04.2018 16:00:00 23,0 10,0 9 5 SSW - 10
17.04.2018 15:00:00 21,0 11,0 8 4 S - 10
17.04.2018 14:00:00 21,1 10,6 4 2 S 1021,8 20
17.04.2018 13:00:00 21,0 11,0 9 5 - - 10
17.04.2018 12:00:00 20,0 12,0 5 3 SW - 10
17.04.2018 11:00:00 19,3 10,9 9 5 SW 1021,9 10
17.04.2018 10:00:00 18,0 10,0 5 3 SSW - 10
17.04.2018 09:00:00 17,0 10,0 5 3 NW - 10
17.04.2018 08:00:00 15,6 10,9 8 4 N 1020,4 10
17.04.2018 07:00:00 13,0 10,0 11 6 NE - 10
17.04.2018 06:00:00 13,0 10,0 8 4 NNE - 10
17.04.2018 05:00:00 12,8 9,4 11 6 NNE 1018,2 10
17.04.2018 04:00:00 13,0 9,0 11 6 N - 10
17.04.2018 03:00:00 14,0 10,0 11 6 N - 10
17.04.2018 02:00:00 13,2 10,0 11 6 N 1017,0 10
17.04.2018 01:00:00 14,0 11,0 8 4 ENE - 10

tt = temperature
td = dewpoint
ff = wind speed
dd = wind direction
ppp = reduced air pressure
vv = visibility

Next stations